Location: Lake Sonoma
(38.7200°N, 123.0564°W)
Time: 04:34:58
(UTC-08:00)

Amateur Radio Satellites - All Passes

Search period start: 24 February 2017 04:04
Search period end: 25 February 2017 04:04
Location: Lake Sonoma, 38.7200°N, 123.0564°W

Satellite Date Start Highest point End Downlink Frequencies (MHz)
Time Altitude Azimuth
STARS 24 Feb 04:15:31 04:19:50 69° 75° (ENE) 04:24:13 437.465
AO-85 24 Feb 04:26:08 04:30:43 65° 118° (ESE) 04:34:59 145.980
M-CUBED/EXP-1 PRIME 24 Feb 05:12:35 05:15:16 22° 258° (WSW) 05:17:54 437.505
ITAMSAT 1 24 Feb 05:15:19 05:17:18 12° 300° (WNW) 05:19:18 435.822/435.867
KKS-1 24 Feb 05:17:19 05:18:43 11° 269° (W) 05:20:08 437.445
LilacSat-2 24 Feb 05:18:14 05:19:41 12° 91° (E) 05:21:06 437.200
STRAND 1 24 Feb 05:22:32 05:24:59 14° 61° (ENE) 05:27:26 437.568
CUBESAT XI-V 24 Feb 05:30:39 05:33:25 15° 268° (W) 05:36:11 437.345
AO-7 24 Feb 05:35:59 05:42:47 29° 302° (WNW) 05:49:33 .
RS-15 24 Feb 05:39:17 05:45:21 16° 265° (W) 05:51:20 29.354- 29.394
DOVE 4 24 Feb 05:44:20 05:48:36 33° 97° (E) 05:53:04 437.250
AO-85 24 Feb 06:08:55 06:11:28 15° 314° (NW) 06:13:54 145.980
CUTE-I 24 Feb 06:10:52 06:16:03 47° 99° (E) 06:21:13 437.470
KAITUO 1B 24 Feb 06:15:05 06:18:45 48° 99° (E) 06:22:22 145.475/437.950
XW-2F 24 Feb 06:17:30 06:21:18 64° 101° (E) 06:25:03 145.980 - 146.000
XW-2D 24 Feb 06:21:18 06:25:08 78° 101° (ESE) 06:28:56 145.860 - 145.880
BEESAT 3 24 Feb 06:24:51 06:28:41 66° 119° (ESE) 06:32:37 437.485
XW-2B 24 Feb 06:26:19 06:30:09 87° 97° (E) 06:33:57 145.730 - 145.750
XW-2C 24 Feb 06:34:55 06:38:45 71° 284° (WNW) 06:42:31 145.795 - 145.815
LilacSat-2 24 Feb 06:50:31 06:54:10 42° 286° (WNW) 06:57:46 437.200
CUTE 1.7 + AOD 2 24 Feb 06:51:34 06:54:16 16° 93° (E) 06:56:57 437.475
NUDT-PHONESAT 24 Feb 06:51:39 06:55:20 52° 284° (WNW) 06:58:58 437.300
XW-2A 24 Feb 06:52:16 06:55:03 22° 96° (E) 06:57:49 145.665 - 145.685
STRAND 1 24 Feb 06:58:23 07:03:29 74° 257° (WSW) 07:08:39 437.568
BEESAT 2 24 Feb 07:00:09 07:04:03 65° 117° (ESE) 07:08:00 435.950
SO-50 24 Feb 07:16:04 07:20:30 55° 56° (NE) 07:24:53 436.795
ISS 24 Feb 07:20:38 07:23:01 19° 131° (SE) 07:25:24 437.550
DOVE 4 24 Feb 07:22:19 07:26:08 25° 291° (WNW) 07:30:08 437.250
HO-68 24 Feb 07:35:06 07:42:06 55° 101° (ESE) 07:49:04 435.675
UWE-3 24 Feb 07:36:28 07:39:19 16° 92° (E) 07:42:08 435.000/436.395/437.385
AAUSAT CUBESAT 2 24 Feb 07:44:00 07:47:05 20° 94° (E) 07:50:09 437.432
Tancredo 1 24 Feb 07:48:34 07:51:37 38° 135° (SE) 07:54:40 437.200
SEEDS 24 Feb 07:50:12 07:54:17 52° 100° (E) 07:58:19 437.485
KAITUO 1B 24 Feb 07:51:18 07:52:18 11° 295° (WNW) 07:53:18 145.475/437.950
CUTE-I 24 Feb 07:51:43 07:55:44 22° 295° (WNW) 07:59:45 437.470
ZACube-1 24 Feb 08:00:20 08:03:14 16° 92° (E) 08:06:05 437.345
O/OREOS (USA 219) 24 Feb 08:04:40 08:08:25 24° 60° (ENE) 08:12:10 437.305
BEESAT 3 24 Feb 08:04:56 08:06:44 13° 316° (NW) 08:08:33 437.485
XW-2A 24 Feb 08:25:15 08:27:40 18° 291° (WNW) 08:30:04 145.665 - 145.685
CUTE 1.7 + AOD 2 24 Feb 08:26:20 08:30:13 37° 288° (WNW) 08:34:05 437.475
CUBEBUG 2 24 Feb 08:31:17 08:36:03 81° 284° (WNW) 08:40:46 437.445
YUBILEINY 24 Feb 08:37:40 08:39:46 11° 74° (ENE) 08:41:52 435.215
UNISAT 6 24 Feb 08:38:28 08:41:55 22° 67° (ENE) 08:45:27 437.425
TIGRISAT 24 Feb 08:39:16 08:42:38 21° 67° (ENE) 08:46:03 435.000
BEESAT 2 24 Feb 08:40:19 08:42:14 13° 316° (NW) 08:44:11 435.950
FO-29 24 Feb 08:46:21 08:51:45 23° 59° (ENE) 08:57:27 435.910
AO-73 24 Feb 08:48:20 08:52:47 51° 99° (E) 08:57:07 145.935
PRISM 24 Feb 08:49:40 08:53:44 76° 76° (ENE) 08:57:49 437.425
ISS 24 Feb 08:56:05 08:59:15 42° 326° (NNW) 09:02:25 437.550
Oscar 11 24 Feb 08:56:38 09:00:53 54° 100° (E) 09:05:06 .
SO-50 24 Feb 08:58:05 09:00:28 14° 251° (WSW) 09:02:49 436.795
UWE-3 24 Feb 09:11:30 09:16:00 47° 287° (WNW) 09:20:25 435.000/436.395/437.385
AAUSAT CUBESAT 2 24 Feb 09:19:00 09:22:32 28° 290° (WNW) 09:26:04 437.432
HO-68 24 Feb 09:23:33 09:29:23 28° 299° (WNW) 09:35:13 435.675
Tancredo 1 24 Feb 09:25:14 09:27:59 24° 332° (NNW) 09:30:43 437.200
DELFI C3 24 Feb 09:26:56 09:30:33 34° 98° (E) 09:34:08 145.870
SEEDS 24 Feb 09:27:41 09:29:29 13° 295° (WNW) 09:31:17 437.485
ZACube-1 24 Feb 09:35:22 09:39:42 43° 288° (WNW) 09:43:57 437.345
O/OREOS (USA 219) 24 Feb 09:43:47 09:47:49 31° 256° (WSW) 09:51:50 437.305
EO-79 24 Feb 09:54:27 09:56:01 12° 64° (ENE) 09:57:34 145.935-145.965
POLYITAN 1 24 Feb 10:10:06 10:12:59 18° 67° (ENE) 10:15:54 437.675
NANOSAT C BR1 24 Feb 10:10:54 10:13:35 17° 66° (ENE) 10:16:18 145.865
QB50P2 24 Feb 10:12:43 10:15:52 21° 68° (ENE) 10:19:02 145.880/145.840
UNISAT 6 24 Feb 10:14:22 10:18:24 33° 263° (W) 10:22:33 437.425
TIGRISAT 24 Feb 10:14:57 10:19:03 35° 263° (W) 10:23:15 435.000
AO-73 24 Feb 10:25:57 10:28:32 15° 295° (WNW) 10:31:05 145.935
YUBILEINY 24 Feb 10:26:05 10:34:48 70° 93° (E) 10:43:32 435.215
FO-29 24 Feb 10:28:56 10:35:53 73° 258° (WSW) 10:43:36 435.910
LO-87 24 Feb 10:31:15 10:34:08 22° 96° (E) 10:37:00 145.935 - 145.965
Oscar 11 24 Feb 10:34:31 10:36:32 13° 296° (WNW) 10:38:32 .
ISS 24 Feb 10:35:04 10:36:24 12° 345° (NNW) 10:37:44 437.550
AIST 2D 24 Feb 10:42:41 10:46:12 68° 76° (ENE) 10:49:46 435.315
ESTCUBE 1 24 Feb 10:45:30 10:48:37 18° 93° (E) 10:51:42 437.505/2401.250
BUGSAT 1 24 Feb 10:46:32 10:48:12 12° 64° (ENE) 10:49:53 437.445
DELFI C3 24 Feb 11:02:38 11:05:03 16° 293° (WNW) 11:07:28 145.870
VELOX 1 24 Feb 11:16:44 11:18:32 12° 91° (E) 11:20:19 145.980
DUCHIFAT 1 24 Feb 11:17:29 11:21:41 88° 67° (ENE) 11:25:55 145.980
EO-79 24 Feb 11:27:05 11:31:14 58° 259° (W) 11:35:26 145.935-145.965
SPROUT 24 Feb 11:32:17 11:34:46 15° 92° (E) 11:37:15 437.525
POLYITAN 1 24 Feb 11:44:35 11:48:29 36° 262° (W) 11:52:26 437.675
NANOSAT C BR1 24 Feb 11:45:02 11:48:58 39° 262° (W) 11:52:56 145.865
QB50P2 24 Feb 11:47:41 11:51:26 31° 263° (W) 11:55:14 145.880/145.840
LO-87 24 Feb 12:04:47 12:07:26 20° 290° (WNW) 12:10:06 145.935 - 145.965
BUGSAT 1 24 Feb 12:19:09 12:23:04 51° 260° (W) 12:27:05 437.445
FO-29 24 Feb 12:20:23 12:22:15 11° 277° (W) 12:24:08 435.910
ESTCUBE 1 24 Feb 12:21:23 12:25:32 38° 288° (WNW) 12:29:39 437.505/2401.250
YUBILEINY 24 Feb 12:25:31 12:32:20 24° 292° (WNW) 12:39:12 435.215
50 SAT 24 Feb 12:36:58 12:40:27 78° 100° (E) 12:43:54 437.505
Oscar 19 24 Feb 12:39:15 12:44:21 65° 74° (ENE) 12:49:27 437.125/150
Tancredo 1 24 Feb 12:42:01 12:42:43 10° 12° (NNE) 12:43:25 437.200
DX 1 24 Feb 12:45:54 12:50:10 53° 101° (E) 12:54:25 434.975-435.025
VELOX 1 24 Feb 12:50:59 12:55:18 55° 286° (WNW) 12:59:37 145.980
AO-7 24 Feb 12:51:35 12:56:22 17° 50° (NE) 13:01:08 .
AO-85 24 Feb 12:58:54 13:02:28 33° 53° (NE) 13:06:04 145.980
UKube-1 24 Feb 13:00:04 13:04:18 55° 101° (E) 13:08:32 .
SPROUT 24 Feb 13:06:48 13:10:53 43° 288° (WNW) 13:14:57 437.525
ITAMSAT 1 24 Feb 13:13:42 13:16:18 14° 61° (ENE) 13:18:54 435.822/435.867
Gurwin Techsat 1B 24 Feb 13:16:00 13:21:18 80° 75° (ENE) 13:26:38 435.225
ISS 24 Feb 13:48:59 13:51:35 21° 26° (NNE) 13:54:10 437.550
ITUPSAT 1 24 Feb 14:16:20 14:20:12 24° 95° (E) 14:24:03 437.325
Tancredo 1 24 Feb 14:16:49 14:19:47 33° 31° (NNE) 14:22:44 437.200
Oscar 19 24 Feb 14:21:34 14:24:05 14° 269° (W) 14:26:36 437.125/150
BEESAT 24 Feb 14:23:21 14:27:30 29° 96° (E) 14:31:37 436.000
DX 1 24 Feb 14:23:44 14:25:53 14° 296° (WNW) 14:28:00 434.975-435.025
UKube-1 24 Feb 14:37:51 14:39:50 13° 296° (WNW) 14:41:51 .
AO-7 24 Feb 14:39:25 14:47:46 76° 69° (ENE) 14:56:07 .
AO-85 24 Feb 14:39:53 14:42:37 18° 248° (WSW) 14:45:23 145.980
BEESAT 3 24 Feb 14:43:10 14:46:34 26° 51° (NE) 14:49:57 437.485
ITAMSAT 1 24 Feb 14:49:55 14:55:06 73° 257° (WSW) 15:00:20 435.822/435.867
MOZHAYETS 4 24 Feb 14:52:51 14:56:19 21° 94° (E) 14:59:46
Gurwin Techsat 1B 24 Feb 15:00:12 15:01:48 11° 270° (W) 15:03:25 435.225
PCSat 24 Feb 15:06:52 15:10:10 17° 104° (ESE) 15:13:28 145.827
BEESAT 2 24 Feb 15:19:21 15:22:48 26° 51° (NE) 15:26:13 435.950
ISS 24 Feb 15:25:02 15:28:13 51° 223° (SW) 15:31:24 437.550
KKS-1 24 Feb 15:31:32 15:33:28 12° 92° (E) 15:35:23 437.445
RS-15 24 Feb 15:36:05 15:43:46 20° 98° (E) 15:51:35 29.354- 29.394
CUBESAT XI-V 24 Feb 15:50:54 15:53:00 13° 91° (E) 15:55:06 437.345
Tancredo 1 24 Feb 15:53:18 15:55:58 24° 227° (SW) 15:58:35 437.200
ITUPSAT 1 24 Feb 15:53:45 15:58:03 33° 291° (WNW) 16:02:18 437.325
NO-84 24 Feb 15:57:20 15:58:16 11° 121° (ESE) 15:59:13 435.350 FM
BEESAT 24 Feb 16:01:08 16:05:10 28° 292° (WNW) 16:09:11 436.000
STARS 24 Feb 16:07:42 16:09:59 14° 92° (E) 16:12:15 437.465
BEESAT 3 24 Feb 16:20:44 16:24:07 26° 247° (WSW) 16:27:28 437.485
MOZHAYETS 4 24 Feb 16:29:22 16:33:32 35° 289° (WNW) 16:37:41
AO-7 24 Feb 16:35:09 16:41:12 22° 267° (W) 16:47:18 .
PCSat 24 Feb 16:47:38 16:52:59 62° 301° (WNW) 16:58:23 145.827
DOVE 4 24 Feb 16:49:29 16:52:49 24° 69° (ENE) 16:56:11 437.250
M-CUBED/EXP-1 PRIME 24 Feb 16:51:15 16:53:57 18° 101° (E) 16:56:46 437.505
KAITUO 1B 24 Feb 16:54:28 16:57:13 19° 69° (ENE) 16:59:59 145.475/437.950
BEESAT 2 24 Feb 16:57:06 17:00:30 26° 247° (WSW) 17:03:54 435.950
XW-2F 24 Feb 16:57:23 17:00:32 25° 71° (ENE) 17:03:43 145.980 - 146.000
XW-2D 24 Feb 17:01:18 17:04:40 29° 71° (ENE) 17:08:02 145.860 - 145.880
KKS-1 24 Feb 17:05:57 17:10:20 55° 287° (WNW) 17:14:42 437.445
XW-2B 24 Feb 17:06:13 17:09:39 32° 72° (ENE) 17:13:09 145.730 - 145.750
XW-2C 24 Feb 17:14:36 17:18:15 42° 74° (ENE) 17:21:55 145.795 - 145.815
CUBESAT XI-V 24 Feb 17:26:12 17:30:42 56° 286° (WNW) 17:35:11 437.345
NUDT-PHONESAT 24 Feb 17:29:20 17:32:59 52° 75° (ENE) 17:36:40 437.300
LilacSat-2 24 Feb 17:30:22 17:34:13 72° 76° (ENE) 17:38:06 437.200
CUTE-I 24 Feb 17:31:15 17:36:32 68° 74° (ENE) 17:41:51 437.470
NO-84 24 Feb 17:32:14 17:35:23 54° 320° (NW) 17:38:50 435.350 FM
STARS 24 Feb 17:42:17 17:46:35 50° 287° (WNW) 17:50:51 437.465
RS-15 24 Feb 17:42:25 17:54:18 85° 119° (ESE) 18:06:43 29.354- 29.394
CUTE 1.7 + AOD 2 24 Feb 17:44:41 17:45:48 11° 64° (ENE) 17:46:55 437.475
HO-68 24 Feb 18:02:29 18:08:51 36° 64° (ENE) 18:15:14 435.675
M-CUBED/EXP-1 PRIME 24 Feb 18:25:01 18:28:24 32° 292° (WNW) 18:32:01 437.505
DOVE 4 24 Feb 18:27:06 18:30:28 24° 265° (W) 18:33:50 437.250
KAITUO 1B 24 Feb 18:27:51 18:31:04 26° 264° (W) 18:34:19 145.475/437.950
XW-2F 24 Feb 18:31:45 18:34:38 20° 265° (W) 18:37:34 145.980 - 146.000
UWE-3 24 Feb 18:33:40 18:35:02 11° 62° (ENE) 18:36:25 435.000/436.395/437.385
AAUSAT CUBESAT 2 24 Feb 18:34:14 18:35:57 12° 65° (ENE) 18:37:40 437.432
PCSat 24 Feb 18:36:14 18:37:29 11° 320° (NW) 18:38:47 145.827
XW-2D 24 Feb 18:36:18 18:38:53 17° 266° (W) 18:41:29 145.860 - 145.880
SEEDS 24 Feb 18:40:30 18:44:12 30° 71° (ENE) 18:47:54 437.485
XW-2B 24 Feb 18:41:36 18:43:56 16° 267° (W) 18:46:19 145.730 - 145.750
XW-2C 24 Feb 18:51:06 18:52:39 12° 269° (W) 18:54:12 145.795 - 145.815
XW-2A 24 Feb 18:54:10 18:57:32 68° 259° (WSW) 19:00:57 145.665 - 145.685
ZACube-1 24 Feb 18:56:09 18:57:44 12° 63° (ENE) 18:59:19 437.345
STRAND 1 24 Feb 19:10:21 19:15:14 42° 99° (E) 19:20:05 437.568
NO-84 24 Feb 19:12:37 19:13:50 11° 340° (NNW) 19:15:07 435.350 FM
CUTE-I 24 Feb 19:14:21 19:17:02 14° 269° (W) 19:19:43 437.470
CUTE 1.7 + AOD 2 24 Feb 19:16:48 19:21:04 65° 260° (W) 19:25:19 437.475
CUBEBUG 2 24 Feb 19:27:34 19:31:56 70° 75° (ENE) 19:36:29 437.445
AO-73 24 Feb 19:42:15 19:46:13 33° 71° (ENE) 19:50:17 145.935
HO-68 24 Feb 19:49:42 19:56:25 42° 261° (W) 20:03:10 435.675
Oscar 11 24 Feb 19:49:56 19:53:53 34° 72° (ENE) 19:57:51 .
RS-15 24 Feb 19:57:48 20:08:25 34° 324° (NW) 20:19:19 29.354- 29.394
UWE-3 24 Feb 20:06:25 20:10:48 70° 258° (WSW) 20:15:22 435.000/436.395/437.385
AAUSAT CUBESAT 2 24 Feb 20:06:52 20:10:56 53° 260° (W) 20:15:00 437.432
DELFI C3 24 Feb 20:11:54 20:14:34 17° 68° (ENE) 20:17:13 145.870
SEEDS 24 Feb 20:16:41 20:19:53 21° 266° (W) 20:23:06 437.485
ZACube-1 24 Feb 20:28:58 20:33:22 67° 259° (W) 20:37:54 437.345
PRISM 24 Feb 20:34:46 20:35:47 11° 92° (E) 20:36:49 437.425
YUBILEINY 24 Feb 20:38:31 20:46:06 32° 71° (ENE) 20:53:35 435.215
STRAND 1 24 Feb 20:50:11 20:54:07 23° 295° (WNW) 20:58:02 437.568
AO-73 24 Feb 21:19:07 21:22:29 21° 267° (W) 21:25:56 145.935
Oscar 11 24 Feb 21:26:59 21:30:05 19° 266° (W) 21:33:13 .
SO-50 24 Feb 21:29:28 21:33:16 25° 112° (ESE) 21:37:02 436.795
FO-29 24 Feb 21:41:59 21:47:25 21° 89° (E) 21:52:29 435.910
ESTCUBE 1 24 Feb 21:44:22 21:47:01 16° 65° (ENE) 21:49:40 437.505/2401.250
DELFI C3 24 Feb 21:45:33 21:49:06 32° 263° (W) 21:52:41 145.870
JUGNU 24 Feb 22:04:41 22:05:42 10° 174° (S) 22:06:44 437.505
UNISAT 6 24 Feb 22:06:42 22:11:21 57° 100° (E) 22:15:55 437.425
TIGRISAT 24 Feb 22:07:12 22:11:49 53° 100° (E) 22:16:21 435.000
PRISM 24 Feb 22:07:23 22:11:22 53° 286° (WNW) 22:15:20 437.425
O/OREOS (USA 219) 24 Feb 22:15:26 22:19:26 34° 104° (ESE) 22:23:29 437.305
RS-15 24 Feb 22:18:25 22:26:30 19° 358° (N) 22:34:35 29.354- 29.394
SPROUT 24 Feb 22:26:42 22:27:10 10° 63° (ENE) 22:27:38 437.525
NO-84 24 Feb 22:30:26 22:32:26 13° 23° (NNE) 22:34:31 435.350 FM
YUBILEINY 24 Feb 22:34:50 22:43:12 54° 270° (W) 22:51:32 435.215
LO-87 24 Feb 22:38:36 22:42:05 60° 259° (W) 22:45:36 145.935 - 145.965
DUCHIFAT 1 24 Feb 23:04:02 23:06:36 15° 93° (E) 23:09:08 145.980
SO-50 24 Feb 23:09:14 23:13:33 36° 308° (NW) 23:17:50 436.795
50 SAT 24 Feb 23:10:08 23:12:56 23° 70° (ENE) 23:15:45 437.505
EO-79 24 Feb 23:13:27 23:16:56 24° 95° (E) 23:20:24 145.935-145.965
ESTCUBE 1 24 Feb 23:19:01 23:23:23 49° 260° (W) 23:27:46 437.505/2401.250
FO-29 24 Feb 23:25:30 23:33:07 70° 288° (WNW) 23:39:59 435.910
POLYITAN 1 24 Feb 23:30:24 23:34:26 38° 98° (E) 23:38:24 437.675
NANOSAT C BR1 24 Feb 23:30:26 23:34:21 34° 98° (E) 23:38:14 145.865
QB50P2 24 Feb 23:33:16 23:37:23 44° 99° (E) 23:41:28 145.880/145.840
DX 1 24 Feb 23:40:01 23:44:01 38° 71° (ENE) 23:48:02 434.975-435.025
AIST 2D 24 Feb 23:42:17 23:45:50 77° 283° (WNW) 23:49:22 435.315
UNISAT 6 24 Feb 23:44:57 23:47:32 15° 296° (WNW) 23:50:05 437.425
TIGRISAT 24 Feb 23:45:15 23:48:01 16° 296° (WNW) 23:50:45 435.000
VELOX 1 24 Feb 23:46:26 23:50:49 76° 258° (WSW) 23:55:12 145.980
JUGNU 24 Feb 23:52:19 23:53:46 11° 184° (S) 23:55:14 437.505
UKube-1 24 Feb 23:53:06 23:57:05 38° 71° (ENE) 00:01:05 .
PCSat 24 Feb 23:55:21 23:57:53 13° 42° (NE) 00:00:24 145.827
O/OREOS (USA 219) 24 Feb 23:55:26 23:58:54 22° 301° (WNW) 00:02:24 437.305
SPROUT 24 Feb 23:58:14 00:02:27 70° 258° (WSW) 00:06:44 437.525
BUGSAT 1 25 Feb 00:02:22 00:05:51 24° 96° (E) 00:09:19 437.445
NO-84 25 Feb 00:06:48 00:10:53 53° 41° (NE) 00:15:10 435.350 FM
RS-15 25 Feb 00:34:12 00:44:49 31° 34° (NE) 00:55:07 29.354- 29.394
DUCHIFAT 1 25 Feb 00:38:24 00:42:25 41° 288° (WNW) 00:46:25 145.980
50 SAT 25 Feb 00:43:34 00:46:00 18° 265° (W) 00:48:27 437.505
EO-79 25 Feb 00:49:02 00:52:37 27° 291° (WNW) 00:56:13 145.935-145.965
SRMSAT 25 Feb 00:50:36 00:52:22 11° 175° (S) 00:54:07 437.500
Oscar 19 25 Feb 00:52:42 00:56:54 25° 95° (E) 01:01:04 437.125/150
NANOSAT C BR1 25 Feb 01:06:46 01:09:48 19° 293° (WNW) 01:12:49 145.865
POLYITAN 1 25 Feb 01:07:00 01:09:53 18° 294° (WNW) 01:12:47 437.675
QB50P2 25 Feb 01:10:15 01:12:47 16° 294° (WNW) 01:15:19 145.880/145.840
FO-29 25 Feb 01:13:10 01:16:37 14° 307° (NW) 01:19:57 435.910
DX 1 25 Feb 01:17:30 01:20:19 17° 266° (W) 01:23:09 434.975-435.025
ITUPSAT 1 25 Feb 01:21:49 01:25:43 25° 67° (ENE) 01:29:37 437.325
BEESAT 25 Feb 01:28:25 01:32:32 29° 69° (ENE) 01:36:40 436.000
UKube-1 25 Feb 01:30:27 01:33:14 17° 266° (W) 01:36:02 .
Gurwin Techsat 1B 25 Feb 01:33:51 01:38:42 35° 97° (E) 01:43:31 435.225
PCSat 25 Feb 01:36:43 01:42:11 78° 62° (ENE) 01:47:36 145.827
BUGSAT 1 25 Feb 01:37:34 01:41:07 26° 290° (WNW) 01:44:40 437.445
NO-84 25 Feb 01:45:10 01:48:22 21° 235° (SW) 01:51:39 435.350 FM
MOZHAYETS 4 25 Feb 01:53:48 01:56:56 18° 66° (ENE) 02:00:06
KKS-1 25 Feb 02:29:48 02:30:43 11° 62° (ENE) 02:31:38 437.445
Oscar 19 25 Feb 02:31:36 02:36:15 36° 291° (WNW) 02:40:53 437.125/150
SRMSAT 25 Feb 02:39:02 02:40:36 11° 186° (S) 02:42:10 437.500
AO-7 25 Feb 02:43:35 02:50:14 26° 95° (E) 02:56:50 .
RS-15 25 Feb 02:46:50 02:59:14 88° 59° (ENE) 03:11:02 29.354- 29.394
CUBESAT XI-V 25 Feb 02:53:42 02:55:31 12° 63° (ENE) 02:57:20 437.345
ITUPSAT 1 25 Feb 02:59:03 03:03:21 33° 263° (W) 03:07:42 437.325
ITAMSAT 1 25 Feb 03:04:13 03:09:12 44° 99° (E) 03:14:10 435.822/435.867
STARS 25 Feb 03:04:26 03:05:40 11° 62° (ENE) 03:06:55 437.465
BEESAT 25 Feb 03:06:12 03:10:14 27° 264° (W) 03:14:19 436.000
AO-85 25 Feb 03:13:02 03:15:55 17° 111° (ESE) 03:18:42 145.980
Gurwin Techsat 1B 25 Feb 03:14:00 03:18:29 28° 293° (WNW) 03:22:57 435.225
PCSat 25 Feb 03:22:35 03:24:50 13° 258° (WSW) 03:27:03 145.827
MOZHAYETS 4 25 Feb 03:29:21 03:33:45 43° 261° (W) 03:38:11
M-CUBED/EXP-1 PRIME 25 Feb 03:37:23 03:39:16 15° 63° (ENE) 03:41:09 437.505
